Weather History for El Paso, TX

Change the Weather History Date:

Sunday, January 12, 2014

  Actual Average Record
Temperature  
Mean Temperature 54 °F 44 °F  
Max Temperature 68 °F 57 °F 72 °F (1957)
Min Temperature 40 °F 32 °F 0 °F (1962)
Degree Days  
Heating Degree Days 11 21  
Month to date heating degree days 221 252  
Since 1 July heating degree days 1228 1320  
Cooling Degree Days 0 0  
Month to date cooling degree days 0 0  
Year to date cooling degree days 0 0  
Growing Degree Days 6 (Base 50)    
Moisture  
Dew Point 18 °F    
Average Humidity 25    
Maximum Humidity 37    
Minimum Humidity 12    
Precipitation  
Precipitation 0.00 in 0.01 in 0.25 in (1950)
Month to date precipitation 0.00 0.16  
Year to date precipitation 0.00 0.16  
Snow  
Snow 0.00 in - - ()
Month to date snowfall 0.0  
Since 1 July snowfall T  
Snow Depth 0.00 in    
Sea Level Pressure  
Sea Level Pressure 29.89 in    
Wind  
Wind Speed 16 mph (SW)    
Max Wind Speed 36 mph    
Max Gust Speed 45 mph    
Visibility 10 miles    
Events      
T = Trace of Precipitation, MM = Missing Value Source: NWS Daily Summary

Daily Weather History Graph

Daily Weather History Graph

Search for Another Location

Airport:

Trip Planner

Search our weather history database for the weather conditions in past years. The results will help you decide how hot, cold, wet, or windy it might be!

Date:

Astronomy

Jan. 12, 2014 Rise Set
Actual Time 7:06 AM MST 5:21 PM MST
Civil Twilight 6:39 AM MST 5:48 PM MST
Nautical Twilight 6:09 AM MST 6:18 PM MST
Astronomical Twilight 5:40 AM MST 6:47 PM MST
Moon 2:50 PM MST (1/12) 4:08 AM MST (1/12)
Length of Visible Light 11h 08m
Length of Day
10h 15m
Waxing Gibbous, 90% of the Moon is Illuminated
Jan 12
Waxing Gibbous
Jan 15
Full
Jan 23
Last Quarter
Jan 30
New
Feb 6
First Quarter

Hourly Weather History & Observations

Time (MST) Temp. Windchill Dew Point Humidity Pressure Visibility Wind Dir Wind Speed Gust Speed Precip Events Conditions
12:51 AM 44.1 °F - 18.0 °F 35% 29.96 in 10.0 mi Calm Calm - N/A   Clear
1:51 AM 43.0 °F 38.8 °F 18.0 °F 37% 29.94 in 10.0 mi SSE 6.9 mph - N/A   Clear
2:51 AM 44.1 °F 39.5 °F 19.0 °F 37% 29.93 in 10.0 mi SSE 8.1 mph - N/A   Clear
3:51 AM 46.0 °F 41.0 °F 19.0 °F 34% 29.91 in 10.0 mi South 10.4 mph - N/A   Clear
4:51 AM 44.1 °F 39.0 °F 19.0 °F 37% 29.91 in 10.0 mi South 9.2 mph - N/A   Clear
5:51 AM 44.1 °F 39.5 °F 19.9 °F 38% 29.91 in 10.0 mi South 8.1 mph - N/A   Clear
6:51 AM 45.0 °F 39.7 °F 19.9 °F 37% 29.91 in 10.0 mi South 10.4 mph - N/A   Partly Cloudy
7:51 AM 46.0 °F 41.0 °F 21.0 °F 37% 29.92 in 10.0 mi SSE 10.4 mph - N/A   Partly Cloudy
8:51 AM 51.1 °F - 21.9 °F 32% 29.94 in 10.0 mi South 6.9 mph - N/A   Scattered Clouds
9:51 AM 57.0 °F - 21.9 °F 26% 29.94 in 10.0 mi South 8.1 mph - N/A   Scattered Clouds
10:51 AM 62.1 °F - 21.9 °F 21% 29.91 in 10.0 mi SW 12.7 mph 20.7 mph N/A   Mostly Cloudy
11:51 AM 64.0 °F - 21.9 °F 20% 29.89 in 10.0 mi SW 15.0 mph 18.4 mph N/A   Mostly Cloudy
12:51 PM 64.9 °F - 21.0 °F 19% 29.83 in 10.0 mi Variable 3.5 mph - N/A   Mostly Cloudy
1:51 PM 66.0 °F - 18.0 °F 16% 29.82 in 10.0 mi West 20.7 mph 29.9 mph N/A   Mostly Cloudy
2:51 PM 66.9 °F - 16.0 °F 14% 29.80 in 10.0 mi West 21.9 mph 29.9 mph N/A   Mostly Cloudy
3:51 PM 68.0 °F - 14.0 °F 12% 29.79 in 10.0 mi West 28.8 mph 44.9 mph N/A   Mostly Cloudy
4:51 PM 66.0 °F - 14.0 °F 13% 29.81 in 10.0 mi West 32.2 mph 40.3 mph N/A   Scattered Clouds
5:51 PM 64.0 °F - 15.1 °F 15% 29.84 in 10.0 mi West 27.6 mph 36.8 mph N/A   Scattered Clouds
6:51 PM 63.0 °F - 15.1 °F 16% 29.87 in 10.0 mi West 26.5 mph 39.1 mph N/A   Scattered Clouds
7:51 PM 62.1 °F - 16.0 °F 17% 29.90 in 10.0 mi West 25.3 mph 34.5 mph N/A   Partly Cloudy
8:51 PM 61.0 °F - 17.1 °F 18% 29.90 in 10.0 mi West 25.3 mph 38.0 mph N/A   Partly Cloudy
9:51 PM 59.0 °F - 19.0 °F 21% 29.92 in 10.0 mi WNW 24.2 mph 29.9 mph N/A   Scattered Clouds
10:51 PM 57.0 °F - 18.0 °F 22% 29.94 in 10.0 mi WNW 23.0 mph 32.2 mph N/A   Scattered Clouds
11:51 PM 52.0 °F - 16.0 °F 24% 29.99 in 10.0 mi NNE 6.9 mph - N/A   Partly Cloudy